Location: Hamburg
(53.5500°N, 10.0000°E)
Time: 01:47:51
(UTC+02:00)

A-11 Canister half - All Passes

Search period start: 25 June 2016 00:00
Search period end: 05 July 2016 00:00
Orbit: 1526 x 1683 km, 47.3° (Epoch: 23 June)

Date Brightness Start Highest point End Pass type
(mag) Time Alt. Az. Time Alt. Az. Time Alt. Az.
25 Jun - 12:28:12 10° S 12:34:04 18° SE 12:39:51 10° E daylight
25 Jun - 14:28:26 10° SW 14:37:08 43° SSE 14:45:42 10° E daylight
25 Jun - 16:31:58 10° WSW 16:41:09 60° S 16:50:13 10° E daylight
25 Jun - 18:36:27 10° W 18:45:17 50° SSW 18:54:06 10° SE daylight
25 Jun - 20:41:38 10° W 20:48:38 25° SW 20:55:39 10° S daylight
26 Jun - 12:06:59 10° SSE 12:12:37 17° SE 12:18:09 10° E daylight
26 Jun - 14:06:57 10° SW 14:15:37 42° SSE 14:24:08 10° E daylight
26 Jun - 16:10:25 10° WSW 16:19:36 60° S 16:28:41 10° E daylight
26 Jun - 18:14:53 10° W 18:23:45 51° SSW 18:32:36 10° SE daylight
26 Jun - 20:20:01 10° W 20:27:09 26° SW 20:34:20 10° S daylight
27 Jun - 11:45:48 10° SSE 11:51:09 17° SE 11:56:25 10° E daylight
27 Jun - 13:45:28 10° SW 13:54:06 41° SSE 14:02:35 10° E daylight
27 Jun - 15:48:52 10° WSW 15:58:04 60° S 16:07:08 10° E daylight
27 Jun - 17:53:19 10° W 18:02:15 52° SSW 18:11:07 10° SE daylight
27 Jun - 19:58:23 10° W 20:05:41 27° SW 20:12:59 10° SSE daylight
28 Jun - 11:24:39 10° SSE 11:29:41 16° SE 11:34:39 10° E daylight
28 Jun - 13:23:59 10° SW 13:32:36 40° SSE 13:41:02 10° E daylight
28 Jun - 15:27:19 10° WSW 15:36:32 59° S 15:45:36 10° E daylight
28 Jun - 17:31:45 10° W 17:40:43 53° SSW 17:49:36 10° SE daylight
28 Jun - 19:36:46 10° W 19:44:12 28° SW 19:51:38 10° SSE daylight
29 Jun - 11:03:31 10° SSE 11:08:14 15° SE 11:12:52 10° E daylight
29 Jun - 13:02:31 10° SSW 13:11:05 39° SSE 13:19:28 10° E daylight
29 Jun - 15:05:46 10° WSW 15:15:00 59° S 15:24:03 10° E daylight
29 Jun - 17:10:11 10° W 17:19:11 53° SSW 17:28:06 10° ESE daylight
29 Jun - 19:15:10 10° W 19:22:43 29° SW 19:30:16 10° SSE daylight
30 Jun - 10:42:27 10° SSE 10:46:46 14° SE 10:51:02 10° E daylight
30 Jun - 12:41:04 10° SSW 12:49:35 38° SSE 12:57:54 10° E daylight
30 Jun - 14:44:13 10° WSW 14:53:27 59° S 15:02:31 10° E daylight
30 Jun - 16:48:37 10° W 16:57:40 54° SSW 17:06:36 10° ESE daylight
30 Jun - 18:53:33 10° W 19:01:14 30° SW 19:08:54 10° SSE daylight
01 Jul - 10:21:26 10° SSE 10:25:19 13° SE 10:29:09 10° ESE daylight
01 Jul - 12:19:36 10° SSW 12:28:04 36° SSE 12:36:20 10° E daylight
01 Jul - 14:22:40 10° WSW 14:31:55 58° S 14:40:59 10° E daylight
01 Jul - 16:27:03 10° W 16:36:08 55° SSW 16:45:05 10° ESE daylight
01 Jul - 18:31:57 10° W 18:39:46 31° SW 18:47:31 10° SSE daylight
02 Jul - 10:00:31 10° SE 10:03:51 12° SE 10:07:11 10° ESE daylight
02 Jul - 11:58:09 10° SSW 12:06:34 35° SE 12:14:46 10° E daylight
02 Jul - 14:01:07 10° WSW 14:10:22 57° S 14:19:26 10° E daylight
02 Jul - 16:05:29 10° W 16:14:36 56° SSW 16:23:35 10° ESE daylight
02 Jul - 18:10:21 10° W 18:18:16 32° SW 18:26:08 10° SSE daylight
03 Jul - 09:39:42 10° SE 09:42:24 11° SE 09:45:05 10° ESE daylight
03 Jul - 11:36:42 10° SSW 11:45:04 34° SE 11:53:12 10° E daylight
03 Jul - 13:39:34 10° WSW 13:48:50 57° SSE 13:57:54 10° E daylight
03 Jul - 15:43:54 10° W 15:53:04 57° SSW 16:02:04 10° ESE daylight
03 Jul - 17:48:45 10° W 17:56:46 33° SW 18:04:44 10° SSE daylight
03 Jul - 19:57:40 10° WSW 19:59:17 11° WSW 20:00:54 10° SW daylight
04 Jul - 09:19:10 10° SE 09:20:57 11° ESE 09:22:44 10° ESE daylight
04 Jul - 11:15:17 10° SSW 11:23:33 33° SE 11:31:38 10° E daylight
04 Jul - 13:18:01 10° WSW 13:27:18 56° SSE 13:36:21 10° E daylight
04 Jul - 15:22:20 10° W 15:31:32 57° SSW 15:40:33 10° ESE daylight
04 Jul - 17:27:09 10° W 17:35:17 35° SW 17:43:19 10° SSE daylight
04 Jul - 19:35:15 10° WSW 19:37:51 11° SW 19:40:27 10° SW daylight
